TimeMST,TemperatureF,Dew PointF,Humidity,Sea Level PressureIn,VisibilityMPH,Wind Direction,Wind SpeedMPH,Gust SpeedMPH,PrecipitationIn,Events,Conditions,WindDirDegrees,DateUTC
12:53 AM,24.8,21.2,86,29.60,10.0,SW,9.2,-,N/A,,Clear,220,2012-12-16 07:53:00
1:53 AM,21.0,19.0,92,29.68,10.0,WSW,9.2,-,N/A,,Clear,240,2012-12-16 08:53:00
2:53 AM,19.9,19.0,96,29.68,10.0,SSW,9.2,-,N/A,,Clear,200,2012-12-16 09:53:00
3:43 AM,17.6,17.6,100,29.57,8.0,SW,12.7,-,N/A,Fog,Partly Cloudy,220,2012-12-16 10:43:00
3:53 AM,19.9,18.0,92,29.67,9.0,SW,12.7,-,N/A,Fog,Partly Cloudy,220,2012-12-16 10:53:00
4:53 AM,19.0,16.0,88,29.68,10.0,SW,11.5,-,N/A,,Clear,220,2012-12-16 11:53:00
5:53 AM,18.0,15.1,88,29.69,10.0,SW,10.4,-,N/A,,Clear,220,2012-12-16 12:53:00
6:53 AM,19.9,17.1,89,29.70,10.0,WSW,15.0,-,N/A,,Scattered Clouds,240,2012-12-16 13:53:00
7:53 AM,19.9,16.0,85,29.71,10.0,SW,13.8,-,N/A,,Mostly Cloudy,230,2012-12-16 14:53:00
8:53 AM,21.0,17.1,85,29.72,10.0,SW,16.1,-,N/A,,Mostly Cloudy,230,2012-12-16 15:53:00
9:53 AM,23.0,18.0,81,29.74,10.0,SW,13.8,-,N/A,,Mostly Cloudy,230,2012-12-16 16:53:00
10:53 AM,26.1,18.0,71,29.74,10.0,SW,15.0,-,N/A,,Mostly Cloudy,230,2012-12-16 17:53:00
11:53 AM,28.0,19.9,72,29.74,10.0,SW,16.1,-,N/A,,Mostly Cloudy,230,2012-12-16 18:53:00
12:53 PM,34.0,19.0,54,29.72,10.0,SW,13.8,-,N/A,,Scattered Clouds,230,2012-12-16 19:53:00
1:53 PM,39.0,19.0,45,29.72,10.0,West,18.4,24.2,N/A,,Clear,270,2012-12-16 20:53:00
2:53 PM,35.1,19.9,54,29.75,10.0,West,20.7,27.6,N/A,,Scattered Clouds,270,2012-12-16 21:53:00
3:53 PM,35.1,17.1,48,29.76,10.0,West,12.7,24.2,N/A,,Scattered Clouds,270,2012-12-16 22:53:00
4:53 PM,33.1,16.0,50,29.78,10.0,West,17.3,24.2,N/A,,Partly Cloudy,280,2012-12-16 23:53:00
5:53 PM,28.0,17.1,63,29.80,10.0,NW,12.7,-,N/A,,Partly Cloudy,310,2012-12-17 00:53:00
6:53 PM,30.0,14.0,51,29.81,10.0,West,18.4,-,N/A,,Clear,280,2012-12-17 01:53:00
7:53 PM,27.0,12.9,56,29.81,10.0,SW,10.4,-,N/A,,Clear,220,2012-12-17 02:53:00
8:53 PM,27.0,10.9,51,29.80,10.0,WSW,12.7,-,N/A,,Clear,240,2012-12-17 03:53:00
9:53 PM,26.1,12.9,58,29.77,10.0,WSW,12.7,-,N/A,,Clear,240,2012-12-17 04:53:00
10:53 PM,25.0,17.1,72,29.74,10.0,WSW,12.7,-,N/A,,Clear,240,2012-12-17 05:53:00
11:53 PM,21.9,15.1,75,29.70,10.0,SW,6.9,-,N/A,,Clear,230,2012-12-17 06:53:00